Вернуться в каталог

STARLINK-32372

АктивенСвязьVLEO
NORAD 61960·PAYLOAD·🇺🇸 United States

Запущен Nov 14, 2024 с Cape Canaveral Space Force Station

Loading…

Ближайшие Пролёты (ближайшие 24 часа)

TLE

СвежийSource: CelesTrak SupGP

Эпоха: Sep 15, 2026, 02:39 UTC

1 61960C 24210B   26258.11090278 -.00039769  00000+0 -14407-2 0  2583
2 61960  43.0007 189.7773 0001051 270.2065  64.5447 15.27593120    15

Отслеживайте STARLINK-32372 в реальном времени с AllMySat

Download on the App Store